This is the latest recevied weather packets stored in our database for station/object IA5FYI-13. If no packets are shown the sender has not sent any weather packets the latest 10 day(s).
| Time | Temp. | Humidity | Pressure | Rain* | Wind** | Luminosity | Snow |
|---|---|---|---|---|---|---|---|
| 1778029813 | 17.22° C | 93% | 1008.8 hPa | 8.38 mm | - | - | - |
| 1778029510 | 17.22° C | 93% | 1008.8 hPa | 6.6 mm | - | - | - |
| 1778029231 | 17.22° C | 93% | 1008.8 hPa | 38.86 mm | - | - | - |
| 1778028909 | 17.22° C | 93% | 1008.8 hPa | 35.05 mm | - | - | - |
| 1778028613 | 17.78° C | 93% | 1008.8 hPa | 28.19 mm | - | - | - |
| 1778028014 | 17.78° C | 92% | 1008.8 hPa | 25.4 mm | - | - | - |
| 1778027710 | 17.78° C | 92% | 1009.1 hPa | 16.76 mm | - | - | - |
| 1778027424 | 17.78° C | 91% | 1009.1 hPa | 8.38 mm | - | - | - |
| 1778027110 | 17.78° C | 91% | 1009.5 hPa | 7.62 mm | - | - | - |
| 1778026814 | 17.78° C | 91% | 1009.5 hPa | 5.08 mm | - | - | - |
| 1778026513 | 17.78° C | 90% | 1009.5 hPa | 4.57 mm | - | - | - |
| 1778026213 | 17.78° C | 90% | 1009.1 hPa | 3.81 mm | - | - | - |
| 1778025910 | 17.78° C | 90% | 1009.5 hPa | 0 mm | - | - | - |
| 1778025635 | 17.78° C | 90% | 1009.8 hPa | 38.61 mm | - | - | - |
| 1778025310 | 17.78° C | 90% | 1009.8 hPa | 31.75 mm | - | - | - |
| 1778025013 | 17.78° C | 90% | 1009.5 hPa | 21.84 mm | - | - | - |
| 1778024713 | 17.78° C | 90% | 1009.5 hPa | 21.34 mm | - | - | - |
| 1778024413 | 17.78° C | 90% | 1009.5 hPa | 21.34 mm | - | - | - |
| 1778024109 | 17.78° C | 90% | 1009.5 hPa | 20.57 mm | - | - | - |
| 1778023823 | 17.78° C | 90% | 1009.5 hPa | 17.78 mm | - | - | - |
| 1778023510 | 17.78° C | 90% | 1009.5 hPa | 16.26 mm | - | - | - |
| 1778023213 | 17.22° C | 90% | 1009.5 hPa | 12.45 mm | - | - | - |
| 1778022912 | 17.78° C | 90% | 1009.5 hPa | 11.94 mm | - | - | - |
| 1778022613 | 17.22° C | 90% | 1009.5 hPa | 8.38 mm | - | - | - |
| 1778022035 | 17.22° C | 90% | 1009.8 hPa | 22.86 mm | - | - | - |
* Rain latest hour (hover to see other rain measurements)
** Current wind speed in m/s (hover to see current wind gust speed)